Location: Cabri�res
(43.7840°N, 5.4986°E)
Time: 12:09:19
(UTC+00:00)

Cosmos 1328 - Pass Details

Date: 09 April 2020
Orbit: 540 x 544 km, 82.5° (Epoch: 26 May)

Event Time Altitude Azimuth Distance (km) Brightness Sun altitude
Rises 19:06:25 0° 352° (N) 2,720 7.8 -9.7°
Reaches altitude 10° 19:08:35 10° 353° (N) 1,823 6.9 -10.1°
Maximum altitude 19:12:36 82° 81° (E) 557 3.7 -10.8°
Drops below altitude 10° 19:16:35 10° 170° (S) 1,807 6.1 -11.4°
Enters shadow 19:18:34 - 171° (S) 2,631 7.0 -11.8°
